Location: C�an Torras
(41.5052°N, 1.9280°E)
Time: 21:45:42
(UTC+00:00)

Cosmos 783 Rocket - Pass Details

Date: 20 January 2021
Orbit: 757 x 781 km, 74.1° (Epoch: 02 March)

Event Time Altitude Azimuth Distance (km) Brightness Sun altitude
Rises 17:15:18 0° 342° (NNW) 3,232 7.7 -4.6°
Reaches altitude 10° 17:17:41 10° 346° (NNW) 2,305 6.9 -5.0°
Maximum altitude 17:22:54 68° 69° (ENE) 828 4.5 -5.9°
Drops below altitude 10° 17:28:06 10° 152° (SSE) 2,305 6.9 -6.8°
Sets 17:30:30 0° 155° (SSE) 3,232 7.7 -7.2°
